Regional Weather Roundup
Issued by NWS

Home | Current Version | Previous Version | Graphics & Text | Print | Product List | Glossary On
Versions: 1 2 3 4 5 6 7 8 9 10 11 12 13 14 15 16 17 18 19 20 21 22 23 24 25 26 27 28 29 30 31 32 33 34 35 36 37 38 39 40 41 42 43 44 45 46 47 48 49 50
000
ASUS43 KFSD 220810
RWRSD

WEATHER ROUNDUP FOR SOUTH DAKOTA
NATIONAL WEATHER SERVICE SIOUX FALLS SD
300 AM CDT SUN APR 22 2018

NOTE: "FAIR" INDICATES FEW OR NO CLOUDS BELOW 12,000 FEET WITH NO
SIGNIFICANT WEATHER AND/OR OBSTRUCTIONS TO VISIBILITY.


SDZ001>005-009-010-012>017-220900-
NORTHWEST AND NORTH CENTRAL SOUTH DAKOTA

CITY           SKY/WX    TMP DP  RH WIND       PRES   REMARKS
BUFFALO          N/A     39  35  86 S10       30.01S
FAITH            N/A     37  36  96 S21       30.11F
MOBRIDGE       CLEAR     35  32  88 SE8       30.19S WCI  29
$$

SDZ012>016-024>037-041>051-057-063-072>074-220900-
SOUTHWEST AND SOUTH CENTRAL SOUTH DAKOTA

CITY           SKY/WX    TMP DP  RH WIND       PRES   REMARKS
RAPID CTY ARPT CLEAR     37  33  85 SE10      30.11F
PIERRE         CLEAR     35  33  92 S7        30.21F WCI  29
CUSTER         FOG       32  30  92 W3        30.12S VSB 1/4
ELLSWORTH AFB  CLEAR    N/A N/A N/A S12       30.10F
PHILIP         CLEAR     36  34  92 SE6       30.17F
PINE RIDGE     CLEAR     38  36  92 S13G22    30.16S
SPEARFISH      FAIR      37  32  81 SW5       30.08S
WINNER         FAIR      41  34  76 S8        30.23F
$$

SDZ004>011-016>023-039-040-220900-
NORTHEAST SOUTH DAKOTA

CITY           SKY/WX    TMP DP  RH WIND       PRES   REMARKS
ABERDEEN       CLEAR     31  29  92 S5        30.27S WCI  26
WATERTOWN      CLEAR     35  28  75 S5        30.26F
BROOKINGS      CLOUDY    36  29  75 CALM      30.28F
SISSETON         N/A     35  30  82 SE5       30.27F
$$

SDZ017-020-022-023-036>040-048>070-220900-
SOUTHEAST SOUTH DAKOTA

CITY           SKY/WX    TMP DP  RH WIND       PRES   REMARKS
SIOUX FALLS    CLOUDY    40  33  76 E3        30.27F
HURON          CLEAR     36  32  85 SE8       30.25
CHAMBERLAIN    CLOUDY    39  39 100 SE6       30.24F
MITCHELL       CLOUDY    39  36  89 SE5       30.27F
YANKTON        CLOUDY    43  37  79 E5        30.26F
$$

ABBREVIATIONS USED IN REMARKS
   TC - TEMPERATURE IN CELSIUS
  WCI - WIND CHILL INDEX
   HX - HEAT INDEX
  VSB - VISIBILITY





USA.gov is the U.S. government's official web portal to all federal, state and local government web resources and services.